RH
57 53 58 45 31 37 46 41 52 34 34 34 32 35 36 37 39 37 41 26 26 38 43 50 50 51 52 55 56 58 59 60 60 61 62 63 68 67 73 76 79 84 89 87 88 78 84 78 79
54 46 55 45 40 39 37 41 32 30 26 25 30 30 34 38 43 38 34 26 26 32 41 48 47 48 50 54 53 54 55 57 57 58 60 62 62 67 68 74 76 82 86 89 89 82 84 82 84
36 48 37 38 42 43 38 35 32 26 23 22 29 29 35 39 42 37 33 25 26 31 36 41 43 45 47 51 52 52 52 53 54 55 58 60 61 62 66 69 75 76 83 87 90 92 86 86 84
47 45 38 30 32 35 34 32 28 27 26 17 14 32 37 40 33 31 26 25 28 32 34 37 39 44 45 48 50 51 52 52 53 54 55 55 58 58 60 66 71 76 76 84 89 91 90 90 87
52 46 40 33 33 29 44 24 21 23 26 16 13 27 39 36 30 29 24 22 26 32 32 34 37 40 41 45 49 49 50 52 52 54 55 55 55 57 59 60 66 69 76 80 86 91 90 94 90
50 44 39 40 33 28 28 23 19 18 15 14 14 16 41 35 30 27 24 26 26 29 33 35 33 35 38 40 46 47 49 50 50 52 54 54 56 56 56 59 61 65 73 77 81 88 90 90 94
42 38 39 37 30 30 22 18 16 16 17 17 13 17 44 38 33 29 25 28 28 29 32 36 41 38 41 38 41 44 46 46 48 49 51 52 53 55 58 57 60 62 66 76 76 85 89 89 92
50 35 28 34 32 34 22 16 15 15 17 16 14 19 35 36 35 31 28 31 31 30 32 33 37 40 42 43 40 42 43 44 46 47 49 50 54 55 59 59 58 60 63 68 79 80 89 90 95
44 38 30 25 27 27 21 19 19 18 16 18 16 17 20 36 37 35 36 36 41 35 32 35 36 37 40 39 43 50 48 47 50 52 49 61 68 72 66 58 56 58 63 69 81 80 83 92 95
44 39 32 29 27 24 21 22 22 20 21 20 21 30 34 40 38 38 40 41 41 42 40 36 38 38 40 32 48 52 46 56 56 56 54 69 62 64 53 64 57 61 62 71 77 88 80 87 95
32 36 27 40 30 27 24 24 23 23 20 18 20 24 32 34 37 40 40 41 38 37 44 38 35 40 42 44 54 58 58 59 61 56 58 66 57 70 72 86 73 74 70 86 82 89 86 87 95
25 33 33 40 31 30 28 24 21 22 17 19 19 23 30 31 38 42 44 43 41 40 39 42 42 40 43 54 52 54 55 59 57 60 57 66 71 69 69 76 84 80 84 90 89 94 92 86 91
25 34 32 33 30 28 27 26 23 22 19 18 18 20 22 24 25 30 41 47 46 45 43 44 46 45 41 44 53 53 52 58 58 60 60 63 66 69 71 74 77 78 84 82 89 89 91 90 93
32 34 33 32 30 27 27 29 26 20 22 21 19 21 21 23 25 30 33 39 46 46 48 47 49 47 48 49 48 50 54 56 59 61 61 60 68 68 69 75 75 76 80 74 83 86 93 92 93
30 32 33 28 26 30 30 39 30 22 22 22 19 18 21 24 26 28 28 31 37 43 46 48 50 52 49 47 49 51 57 53 59 59 58 60 63 63 65 75 76 75 69 77 77 78 86 92 91
28 39 42 32 30 30 30 40 30 26 19 22 19 19 20 22 23 24 28 32 35 42 42 45 40 49 53 51 52 50 55 58 60 61 66 59 58 60 66 76 76 76 70 70 78 82 85 89 90
39 47 42 38 33 32 31 39 31 25 19 19 20 20 21 21 21 22 23 27 32 38 40 44 48 50 51 51 54 57 56 60 62 66 64 58 60 62 66 74 74 75 75 76 82 74 81 87 88
44 44 40 43 39 36 39 35 29 29 23 20 20 21 21 21 21 19 21 24 31 36 41 44 48 51 52 60 62 64 65 66 66 63 63 58 66 64 67 71 72 74 80 78 78 75 75 82 86
40 50 48 43 40 39 46 41 36 35 39 30 22 22 22 22 22 21 22 26 30 34 38 40 45 46 58 62 63 63 61 64 63 62 59 58 64 66 70 76 75 74 78 73 71 74 78 82 82
39 50 62 48 39 41 47 48 40 26 33 36 25 25 25 24 19 19 24 25 29 31 34 40 43 47 54 66 67 65 63 65 69 69 65 63 60 67 64 71 77 75 77 75 76 80 84 86 86
49 52 52 48 44 53 64 62 40 24 23 25 30 28 25 24 19 18 17 22 27 31 33 36 43 48 53 60 67 66 66 68 68 67 68 62 58 66 72 73 75 77 77 79 79 84 83 88 85
59 40 42 45 68 75 66 70 53 49 22 20 35 25 24 22 20 18 18 21 23 25 32 40 45 50 52 59 67 65 67 65 69 67 68 68 63 65 70 73 72 76 78 78 81 69 85 86 89
51 44 48 48 86 88 70 82 54 48 20 21 22 23 23 25 24 22 23 23 27 29 35 41 47 52 55 60 65 70 69 74 73 69 64 64 68 66 67 73 74 74 79 76 79 81 84 87 90
40 67 49 71 88 82 81 80 69 42 23 21 22 22 23 23 24 23 28 30 38 41 40 42 47 50 53 59 63 66 63 58 63 64 65 61 74 76 72 70 74 78 79 78 77 80 83 85 84
66 84 84 78 86 79 72 74 71 52 55 18 19 22 22 24 26 31 41 51 55 55 52 47 49 54 52 53 50 50 52 54 58 61 66 64 59 73 77 72 74 75 76 80 79 81 83 84 85
79 88 84 69 83 77 58 75 64 54 24 22 22 25 40 42 38 45 53 58 63 63 62 52 50 51 50 47 50 51 52 63 66 68 68 68 64 59 73 74 71 70 73 77 79 84 83 85 90
80 83 69 81 95 95 78 68 62 28 27 48 48 54 56 55 57 59 62 69 72 72 67 61 54 51 48 49 52 54 56 60 64 63 68 69 66 58 62 72 71 69 72 73 75 81 80 81 84
79 82 76 91 75 87 78 85 75 38 30 48 69 65 64 67 67 69 73 72 73 73 70 67 55 48 46 50 52 50 57 61 64 68 68 70 67 65 62 65 68 71 73 73 75 77 79 80 84
77 84 82 88 91 89 95 84 81 68 65 72 78 71 75 75 72 74 74 71 73 75 76 74 55 55 57 53 54 58 62 65 67 68 66 66 69 66 62 64 67 68 69 72 73 74 76 80 78
90 83 80 89 85 95 93 86 87 87 80 85 85 83 80 80 72 73 72 76 81 81 78 77 76 63 57 56 59 57 60 64 69 70 68 71 72 68 68 66 67 66 66 68 71 73 62 68 73
Wind_Speed
7 6 0 5 7 7 2 1 1 1 0 1 0 2 3 4 2 2 5 4 8 6 4 6 13 15 16 18 18 20 20 21 21 22 22 23 21 21 21 22 23 23 25 23 25 12 7 10 11
5 4 5 3 7 4 4 2 4 3 3 1 2 3 2 2 4 5 4 5 8 6 5 5 10 12 14 17 17 18 20 21 21 21 22 22 22 20 21 21 22 23 24 24 26 16 10 10 11
4 1 5 6 4 5 5 3 5 3 2 2 3 4 3 4 3 6 4 8 8 6 3 3 9 11 13 16 17 18 19 20 21 22 22 22 22 22 20 21 21 22 23 25 24 26 10 10 11
3 5 6 7 3 1 5 4 3 5 1 3 4 4 3 1 7 8 7 9 8 5 4 4 8 12 13 14 16 17 19 19 21 23 23 23 22 21 21 22 22 22 22 24 25 26 19 9 13
4 4 6 5 2 3 2 3 3 5 3 3 2 3 4 2 5 7 7 7 9 5 3 3 8 11 11 13 15 16 17 19 21 22 24 25 24 23 21 21 21 23 22 23 24 25 24 11 12
5 4 6 3 3 2 2 1 2 1 1 1 3 4 4 4 6 6 7 7 6 7 4 3 7 9 10 11 13 14 16 19 19 21 22 23 25 25 23 21 21 22 23 23 24 25 25 21 14
7 5 5 5 5 2 5 3 3 3 1 2 5 3 1 5 7 6 7 7 7 6 5 3 3 5 9 9 12 13 15 16 17 20 20 22 23 24 25 24 22 21 23 22 24 24 25 25 19
5 6 4 4 5 3 4 3 5 3 2 2 4 4 4 7 9 6 5 6 5 4 5 5 4 3 4 3 10 12 14 16 16 18 20 21 20 22 22 23 23 23 22 24 23 23 23 26 26
2 6 2 5 6 3 3 3 0 1 4 2 4 4 3 8 8 5 3 2 1 2 4 3 3 3 2 1 4 8 11 13 14 13 16 11 5 7 10 19 23 24 23 23 21 23 24 25 21
7 5 3 2 2 3 3 2 2 1 2 4 2 3 5 7 5 6 5 5 4 5 6 6 4 3 2 1 3 4 5 5 5 6 7 4 6 6 12 13 22 21 21 19 21 23 22 20 11
4 4 3 2 2 2 3 1 3 2 4 8 7 7 7 5 6 6 5 7 8 5 4 8 6 4 3 2 0 1 2 3 4 6 6 5 5 4 4 3 5 7 15 6 9 11 7 13 10
7 5 3 3 2 1 1 3 4 6 5 4 7 6 6 7 6 7 7 8 5 5 6 7 7 6 6 3 2 2 2 3 3 4 6 4 4 5 5 4 5 6 5 9 8 6 12 12 13
5 2 4 2 2 2 1 4 5 9 8 5 5 6 7 6 5 6 7 6 6 7 7 8 7 7 6 5 3 3 3 3 4 3 5 4 5 5 5 5 4 5 5 6 7 7 9 9 12
2 4 3 1 1 2 3 2 3 4 4 9 7 7 6 6 6 4 4 6 7 7 8 7 8 7 6 6 6 5 4 4 3 3 4 5 4 4 4 5 5 4 5 6 6 7 7 9 12
5 2 1 3 3 2 2 0 7 6 0 8 9 7 5 7 6 8 6 6 7 6 7 8 8 7 7 7 6 5 5 3 3 4 5 5 4 5 5 4 5 4 5 9 7 7 5 8 11
3 4 6 2 8 4 4 9 4 4 6 8 7 6 5 6 6 6 7 7 6 6 7 6 5 6 7 7 5 4 4 4 4 4 3 5 5 6 5 4 4 5 5 5 7 6 7 6 9
8 1 4 8 5 5 5 10 5 4 6 7 7 7 6 7 5 7 7 7 6 7 6 7 6 7 7 6 5 5 5 4 4 3 3 5 6 6 5 4 4 5 4 4 5 7 6 7 8
4 5 5 6 4 3 6 18 14 9 9 9 9 8 7 7 10 7 7 6 6 5 6 6 5 7 6 4 4 3 3 4 4 4 4 5 4 6 6 5 4 4 4 4 4 6 7 7 8
0 2 4 5 2 7 2 11 18 11 4 8 9 8 8 8 5 6 6 6 5 5 6 7 5 7 4 3 3 3 4 3 3 3 6 5 5 5 5 5 5 4 4 5 6 6 8 7 5
1 3 5 7 4 3 5 16 5 6 2 7 9 8 9 4 4 6 6 6 6 6 7 7 8 7 5 2 4 3 3 3 4 3 4 5 5 5 6 6 5 5 4 5 4 4 5 5 3
0 1 3 6 10 1 8 6 5 1 2 3 5 6 6 9 8 7 7 7 7 9 9 7 8 7 6 6 2 2 2 3 3 3 3 4 5 5 6 6 6 5 3 4 4 4 5 4 5
4 2 1 5 6 3 5 5 3 4 4 5 3 3 5 6 4 4 5 6 7 10 8 8 7 7 6 4 4 6 4 4 4 3 3 4 5 6 6 6 7 5 4 5 4 4 3 3 6
5 2 2 1 4 5 5 5 9 4 6 3 1 1 2 1 3 6 7 6 8 8 7 7 7 7 5 4 6 4 5 4 4 4 8 6 5 6 6 6 6 6 4 5 5 4 4 3 3
4 1 2 4 3 4 5 4 7 1 4 3 3 6 7 7 4 5 6 7 7 8 7 7 8 8 5 4 5 6 7 6 5 5 6 6 4 4 6 7 5 6 5 6 6 6 5 4 4
7 5 5 7 6 5 3 4 10 4 2 5 7 8 7 5 7 7 8 8 8 10 10 8 7 8 6 5 6 6 7 7 7 8 6 7 7 4 5 6 6 4 6 6 5 5 5 4 4
3 5 6 5 2 5 1 7 6 2 6 8 8 6 2 5 6 8 9 7 8 9 10 9 8 8 7 6 7 6 6 4 5 6 6 6 7 8 5 6 7 7 7 5 6 4 5 4 4
1 2 3 6 0 3 4 8 8 7 5 7 7 2 5 7 8 9 8 7 8 8 10 10 7 7 7 6 6 6 6 6 6 8 6 6 7 8 8 6 7 7 7 6 6 4 5 4 5
3 1 3 4 2 6 5 7 7 8 10 6 5 7 8 8 7 7 7 8 7 8 9 8 6 7 5 6 5 6 6 6 6 6 9 8 9 9 11 9 8 7 7 6 5 5 5 6 5
2 3 3 3 4 5 4 9 7 9 8 7 3 8 9 9 8 7 8 7 8 7 8 9 6 6 6 6 6 6 7 7 6 7 8 9 8 10 12 10 9 9 8 6 6 7 7 6 6
3 6 5 5 5 2 4 11 1 4 8 4 7 9 9 5 9 9 10 9 8 8 9 10 6 5 5 5 6 8 8 7 6 7 9 8 9 9 11 11 10 10 9 8 8 9 9 8 8
Wind_Direction
325 304 98 38 59 66 94 145 89 128 116 241 235 55 100 66 61 194 237 194 113 87 50 17 14 13 16 16 16 12 11 7 6 7 7 5 1 1 1 359 356 1 0 353 347 302 228 214 173
332 334 42 76 81 75 259 208 177 195 187 322 70 85 60 93 105 144 144 104 124 109 62 17 18 18 22 21 21 19 15 14 10 9 8 6 6 2 1 358 351 357 0 354 351 321 221 208 182
309 60 77 87 96 154 181 193 183 192 162 108 106 57 96 141 117 158 194 129 113 111 100 26 27 26 26 23 23 21 21 20 17 14 12 9 8 5 4 359 352 349 358 354 349 350 272 213 202
50 19 34 78 104 218 183 177 149 147 4 54 130 111 65 280 159 178 142 132 115 130 89 15 37 32 25 22 20 21 20 21 19 16 15 13 9 2 4 4 359 345 352 355 351 348 335 228 210
39 63 65 80 126 146 166 184 143 172 177 176 175 164 115 11 111 140 139 134 123 138 107 29 46 36 27 24 19 17 19 20 19 14 14 13 10 4 2 3 359 355 346 352 349 343 346 290 234
43 91 65 156 186 149 195 186 105 93 59 121 93 114 204 160 152 174 125 120 133 134 120 66 44 38 29 21 18 16 19 18 18 15 12 10 7 4 3 2 359 357 351 347 349 340 343 338 252
106 80 150 130 172 185 205 174 166 172 179 218 158 155 203 228 206 166 142 139 139 141 138 123 80 42 26 19 13 13 15 14 14 11 8 8 7 4 1 0 356 358 355 344 347 338 335 334 319
96 90 104 174 182 220 184 142 155 167 204 126 141 197 227 213 177 162 150 148 153 155 162 163 142 91 40 8 360 8 6 5 6 6 3 3 2 0 355 353 352 357 354 353 339 336 332 332 323
91 64 140 172 155 168 190 159 323 46 122 205 206 170 229 130 139 139 157 197 214 211 199 180 172 130 64 330 3 5 2 0 355 352 355 352 339 335 351 350 353 357 355 353 339 336 338 335 317
65 90 173 357 40 159 164 172 178 163 161 240 218 37 87 126 149 172 193 219 230 224 209 198 201 177 136 323 5 354 348 341 334 335 335 340 334 339 351 348 350 355 352 350 346 333 340 334 320
17 109 150 22 96 41 134 225 328 164 242 223 198 173 162 165 183 203 221 214 224 222 191 192 200 196 180 192 312 331 323 321 326 327 330 333 335 325 328 327 338 351 343 341 348 335 322 322 320
86 43 85 168 25 54 177 322 309 203 229 217 162 151 167 182 206 224 237 239 237 219 208 210 207 195 204 183 198 234 292 301 316 319 320 328 323 328 329 333 343 343 337 325 334 337 340 312 313
73 134 60 77 65 305 350 259 245 251 237 167 150 154 165 186 229 233 232 248 243 246 233 222 205 213 214 203 210 223 241 258 263 288 307 322 325 322 322 323 329 327 326 327 337 319 299 325 307
82 83 101 95 336 346 303 263 22 269 204 226 177 189 192 203 227 265 264 254 236 234 232 224 222 221 207 213 213 224 235 247 264 286 288 312 313 311 308 314 313 317 314 319 307 302 313 307 307
135 72 48 12 4 355 326 239 225 247 95 184 185 205 209 230 241 233 234 247 234 241 239 223 220 222 222 224 226 223 235 236 262 276 307 313 315 308 310 307 305 301 312 314 320 330 303 338 301
37 56 10 28 359 10 38 274 248 158 149 176 193 216 228 252 236 242 234 235 243 243 238 250 237 217 225 231 238 234 240 239 256 279 301 304 311 309 314 305 300 301 310 308 312 320 334 336 304
11 350 349 323 30 322 34 277 262 152 186 199 211 223 233 258 264 247 238 226 233 229 236 249 250 246 239 244 242 252 258 257 267 274 276 289 300 302 294 283 285 298 306 305 310 326 328 293 292
320 343 321 260 349 2 262 268 285 268 205 218 222 224 230 239 240 234 229 222 226 233 238 246 256 254 251 254 264 263 263 258 242 243 253 284 293 300 294 285 274 294 307 303 308 310 300 298 284
105 251 263 266 47 345 234 281 294 309 213 204 221 220 231 236 259 240 235 232 233 249 253 243 247 256 236 247 266 287 248 253 250 250 264 271 281 291 291 282 276 283 280 289 309 318 311 315 340
237 290 288 282 345 355 329 306 295 325 308 195 200 225 233 233 220 230 248 261 259 258 253 254 250 261 241 199 229 221 255 267 246 244 252 256 274 286 287 284 274 255 248 284 293 307 320 285 3
355 190 318 254 321 244 320 315 5 286 54 112 183 206 203 213 210 228 253 258 271 268 265 263 258 263 260 227 244 274 304 301 283 257 249 240 264 272 275 276 273 260 244 254 274 292 294 315 322
310 134 276 290 23 283 19 274 306 326 63 64 65 127 176 195 203 238 248 276 262 263 262 258 264 261 261 246 222 220 225 250 254 266 264 259 258 271 272 272 277 259 242 237 246 258 266 307 304
259 341 259 95 74 39 335 70 267 329 43 17 75 233 232 325 307 298 297 282 302 301 288 277 265 258 254 246 230 233 250 250 271 283 289 289 262 267 271 268 268 267 252 257 237 246 248 236 256
327 22 85 56 109 30 258 101 287 212 141 103 56 52 49 44 6 318 323 317 302 306 297 274 262 267 263 252 246 227 245 273 287 282 284 289 269 258 267 271 268 270 258 240 240 234 235 240 243
32 45 338 358 8 222 193 25 241 261 340 144 105 64 41 350 330 320 316 311 311 312 305 287 259 267 266 251 260 252 250 255 264 277 277 288 294 271 251 263 265 261 262 257 247 236 236 241 242
20 129 144 247 268 280 7 241 248 191 111 90 83 96 65 322 302 287 286 292 288 293 292 280 264 265 265 258 263 269 270 251 256 263 267 270 276 285 240 249 255 260 254 244 248 235 232 230 240
300 52 186 103 36 44 242 287 316 151 141 119 125 155 283 285 274 274 291 292 294 296 297 291 278 270 274 277 279 283 282 270 262 264 261 262 272 278 269 242 246 254 257 241 241 237 236 228 238
117 177 38 4 337 291 285 276 235 196 198 203 25 347 308 276 291 311 311 299 293 289 290 291 276 266 279 280 279 281 273 262 258 261 266 259 266 271 279 276 258 247 245 246 235 249 228 223 222
26 3 31 130 135 199 289 261 218 208 174 192 246 292 279 280 304 308 297 288 280 281 294 304 295 294 293 282 280 279 275 264 258 260 266 269 267 269 275 275 267 255 243 232 241 242 237 233 237
160 193 151 138 257 187 173 266 252 200 184 185 262 274 272 297 325 311 296 288 289 297 311 308 290 294 296 290 278 279 281 278 263 261 267 265 267 268 267 271 267 258 246 234 229 235 245 232 228